Location: Artiguedieu
(43.5000°N, 0.5454°E)
Time: 20:36:31
(UTC+00:00)

Transit 2A - Pass Details

Date: 31 July 2021
Orbit: 594 x 964 km, 66.7° (Epoch: 28 September)

Event Time Altitude Azimuth Distance (km) Brightness Sun altitude
Rises 14:28:41 0° 332° (NNW) 3,219 9.2 50.4°
Reaches altitude 10° 14:31:03 10° 338° (NNW) 2,348 8.6 50.1°
Maximum altitude 14:36:20 49° 54° (NE) 1,077 7.0 49.2°
Drops below altitude 10° 14:42:06 10° 128° (SE) 2,569 8.6 48.3°
Sets 14:44:47 0° 134° (SE) 3,551 9.3 47.8°
